#timestamp,LO_Frequency,Hit,StdDev 
1622966415.7,286046999.9,N
1622966435.5,286046999.0,N
1622966455.4,286047000.7,N
1622966475.2,286046998.5,N
1622966495.0,286046997.0,N
1622966495.9,286046997.0,N
1622966515.8,286046999.5,N
1622966535.6,286046994.9,N
1622966555.5,286046997.2,N
1622966575.3,286046999.4,N
1622966595.1,286046998.1,N
1622966615.9,286047001.1,N
1622966635.7,286046998.6,N
1622966655.6,286046999.2,N
1622966675.4,286047000.4,N
1622966695.2,286047002.8,N
1622966715.1,286047000.6,N
1622966716.0,286047000.6,N
1622966735.8,286046997.0,N
1622966755.6,286046998.0,N
1622966775.5,286046997.2,N
1622966795.3,286046999.6,N
1622966815.2,286047001.1,N
1622966835.9,286047002.4,N
1622966855.7,286047002.4,N
1622966875.6,286047001.9,N
1622966895.4,286046999.9,N
1622966915.2,286047001.8,N
1622966935.1,286047002.7,N
1622966936.0,286047002.7,N
1622966955.8,286047001.2,N
1622966975.7,286047011.9,Y
1622966995.5,286046999.0,P
1622967015.3,286046996.6,P
1622967035.2,286046997.1,N
1622967055.0,286046997.1,N
1622967055.9,286046997.1,N
1622967075.8,286046996.8,N
1622967095.6,286046996.6,Y
1622967115.4,286047000.3,P
1622967135.3,286046998.4,N
1622967155.1,286046998.8,N
1622967175.8,286046999.1,N
1622967195.7,286046998.4,N
1622967215.5,286046998.9,N
1622967235.4,286046997.1,Y
1622967255.2,286047001.1,P
1622967305.1,286047001.0,E
1622967315.9,286047000.6,N
1622967335.7,286047004.0,P
1622967355.6,286047004.4,N
1622967375.4,286047003.7,N
1622967395.2,286047003.2,N
1622967415.1,286047001.8,N
1622967416.0,286047001.8,N
1622967435.8,286047003.5,N
1622967455.7,286047001.9,N
1622967475.5,286047003.5,N
1622967495.3,286047004.2,Y
1622967515.2,286047000.8,P
1622967535.0,286046996.5,P
1622967535.9,286046996.5,N
1622967555.8,286046999.1,N
1622967575.6,286046999.3,N
1622967595.4,286046996.6,N
1622967615.3,286046995.6,N
1622967635.1,286046994.9,N
1622967655.8,286046996.9,N
1622967675.7,286046999.5,N
1622967695.5,286047000.4,N
1622967715.4,286047001.9,N
1622967735.2,286047000.2,N
1622967755.0,286047002.7,N
1622967755.9,286047002.7,N
1622967775.8,286047000.2,N
1622967795.6,286047000.1,N
1622967815.4,286046999.8,N
1622967835.3,286047000.4,N
1622967855.1,286047001.1,N
1622967875.9,286047000.3,N
1622967895.7,286047000.6,N
1622967915.5,286046999.8,N
1622967935.4,286047002.7,N
1622967955.2,286046998.2,N
1622967975.1,286046999.5,N
1622967976.0,286046999.5,N
1622967995.8,286047001.0,N
1622968015.6,286046999.6,N
1622968035.5,286047000.6,N
1622968055.3,286046999.4,N
1622968075.1,286046999.3,N
1622968095.9,286047001.2,N
1622968115.7,286047000.7,N
1622968135.6,286047001.2,N
1622968155.4,286047000.0,N
1622968175.2,286046999.7,N
1622968195.1,286047000.5,N
1622968196.0,286047000.5,N
1622968215.8,286046998.2,N
1622968235.7,286046998.7,N
1622968255.5,286046997.9,N
1622968275.3,286046999.0,N
1622968295.2,286046999.6,N
1622968315.0,286046995.8,Y
1622968315.9,286046995.8,P
1622968335.7,286046997.1,N
1622968355.6,286047000.9,N
1622968375.4,286047000.5,N
1622968395.3,286046998.7,N
1622968415.1,286046997.1,N
1622968416.0,286046997.1,N
1622968435.8,286046996.9,N
1622968455.7,286046998.3,N
1622968475.5,286046997.8,N
1622968495.4,286046996.8,N
1622968515.2,286046996.9,N
1622968535.0,286046999.0,N
1622968535.9,286046999.0,N
1622968555.8,286046998.0,N
1622968575.6,286046995.8,N
1622968595.4,286046997.5,N
1622968615.3,286046997.1,N
1622968635.1,286047000.3,N
1622968655.9,286046998.1,N
1622968675.7,286046998.4,N
1622968695.5,286046998.1,N
1622968715.4,286046998.3,N
1622968735.2,286046997.7,N
1622968755.0,286046996.6,N
1622968755.9,286046996.6,N
1622968775.8,286047002.7,N
1622968795.6,286047000.0,N
1622968815.5,286047002.2,N
1622968835.3,286047002.4,N
1622968855.1,286047002.4,N
1622968875.9,286047000.0,N
1622968895.7,286046997.2,N
1622968915.5,286046999.6,N
1622968935.4,286046997.2,N
1622968955.2,286046996.5,N
1622968975.1,286046999.3,N
1622968976.0,286046999.3,N
1622968995.8,286047000.9,N
1622969015.6,286046998.2,N
1622969035.5,286046999.3,N
1622969055.3,286047002.8,N
1622969075.2,286047000.1,N
1622969095.9,286047001.6,N
1622969115.7,286047000.1,N
1622969135.6,286047002.2,N
1622969155.4,286047002.7,N
1622969175.2,286047001.2,N
1622969195.1,286047002.6,N
1622969196.0,286047002.6,N
1622969215.8,286047000.0,N
1622969235.7,286046999.8,N
1622969255.5,286047001.2,N
1622969275.3,286046999.8,N
1622969295.2,286046998.7,N
1622969315.0,286046997.2,N
1622969315.9,286046997.2,N
1622969335.8,286046996.5,N
1622969355.6,286046998.9,N
1622969375.4,286046996.9,N
1622969395.3,286046995.5,N
1622969415.1,286046995.1,N
1622969435.9,286046994.9,N
1622969455.7,286046999.1,N
1622969475.5,286047001.0,N
1622969495.4,286047001.0,N
1622969515.2,286047000.9,N
1622969535.0,286047001.9,N
1622969535.9,286047001.9,N
1622969555.8,286047001.6,N
1622969575.6,286046999.7,N
1622969595.5,286047001.9,N
1622969615.3,286047002.7,N
1622969635.1,286047000.2,N
1622969655.9,286047000.3,N
1622969675.7,286047002.3,N
1622969695.6,286047002.5,N
1622969715.4,286047000.4,N
1622969735.2,286047001.2,N
1622969755.1,286046999.1,N
1622969756.0,286046999.1,N
1622969775.8,286047000.3,N
1622969795.6,286047001.2,N
1622969815.5,286046998.1,N
1622969835.3,286046996.6,N
1622969855.2,286046997.9,N
1622969875.9,286046995.7,N
1622969895.7,286046996.4,N
1622969915.6,286046997.3,N
1622969935.4,286046996.7,N
1622969955.2,286046996.3,N
1622969975.1,286046995.9,N
1622969976.0,286046995.9,N
1622969995.8,286046994.9,N
